This demonstration page uses our WeatherBlox Daily Observations layout. Learn more.

Left ArrowRight Arrow

39.01783, -85.05884

Hourly Observations for September 21, 2021

Temp ( °F °C ) Dew Point ( °F °C ) Humidity (%) Winds ( mph kmh ) Pressure ( in mb ) Visibility ( mi km ) Precip ( " mm )
12:52 am 00:52 Partly Cloudy 68 20 64 17.8 87 87 SSE 9 15 30.02 1017 10 16 0.00 0.00
1:52 am 01:52 Partly Cloudy 67 19.4 63 17.2 87 87 S 5 7 30.03 1017 10 16 0.00 0.00
2:52 am 02:52 Mostly Cloudy 68 20 64 17.8 87 87 S 3 6 30.04 1017 10 16 0.00 0.00
3:52 am 03:52 Cloudy 68 20 64 17.8 87 87 SSE 8 13 30.03 1017 10 16 0.00 0.00
4:52 am 04:52 Mostly Cloudy 68 20 64 17.8 87 87 SSE 9 15 30.02 1017 10 16 0.00 0.00
5:52 am 05:52 Cloudy 68 20 64 17.8 87 87 SSE 12 19 30.03 1017 10 16 0.00 0.00
6:52 am 06:52 Cloudy with Light Rain 68 20 64 17.8 87 87 S 8 13 30.05 1018 5 8 0.00 0.00
7:15 am 07:15 Cloudy 68 20 64 17.8 87 87 S 7 11 30.06 1018 10 16 0.02 0.51
7:43 am 07:43 Cloudy 68 20 64 17.8 87 87 SSE 7 11 30.06 1018 7 11 0.02 0.51
7:52 am 07:52 Cloudy with Light Rain 68 20 64 17.8 87 87 SSE 13 20 30.06 1018 6 10 0.02 0.51
8:38 am 08:38 Cloudy with Drizzle 68 20 65 18.3 90 90 SSE 10 17 30.06 1018 4 6 0.00 0.00
8:52 am 08:52 Cloudy with Mist and Fog 68 20 65 18.3 90 90 SSE 13 20 30.06 1018 6 10 0.01 0.25
9:52 am 09:52 Cloudy 69 20.6 65 18.3 87 87 SSE 13 20 30.06 1018 8 13 0.00 0.00
10:52 am 10:52 Cloudy 69 20.6 66 18.9 90 90 S 10 17 30.09 1019 7 11 0.00 0.00
11:02 am 11:02 Cloudy with Mist and Fog 69 20.6 66 18.9 90 90 S 13 20 30.09 1019 5 8 0.00 0.00
11:26 am 11:26 Cloudy with Mist and Fog 70 21.1 66 18.9 87 87 S 12 19 30.08 1019 3 4 0.00 0.00
11:52 am 11:52 Cloudy with Drizzle 70 21.1 67 19.4 90 90 S 12 19 30.08 1019 3 4 0.00 0.00
12:18 pm 12:18 Cloudy with Mist and Fog 70 21.1 66 18.9 87 87 S 12 19 30.07 1018 4 6 0.00 0.00
12:34 pm 12:34 Cloudy with Mist and Fog 70 21.1 66 18.9 87 87 S 9 15 30.07 1018 4 6 0.00 0.00
12:52 pm 12:52 Cloudy with Mist and Fog 71 21.7 67 19.4 87 87 S 12 19 30.07 1018 4 6 0.00 0.00
1:08 pm 13:08 Cloudy with Mist and Fog 71 21.7 66 18.9 84 84 S 10 17 30.06 1018 4 6 0.00 0.00
1:43 pm 13:43 Cloudy with Mist and Fog 71 21.7 67 19.4 87 87 S 8 13 30.05 1018 4 6 0.00 0.00
1:52 pm 13:52 Cloudy 72 22.2 67 19.4 84 84 S 12 19 30.05 1018 7 11 0.00 0.00
2:52 pm 14:52 Cloudy 74 23.3 67 19.4 79 79 S 8 13 30.02 1017 10 16 0.00 0.00
3:52 pm 15:52 Cloudy 74 23.3 67 19.4 79 79 SSE 10 17 30.01 1016 10 16 0.00 0.00
4:52 pm 16:52 Cloudy 74 23.3 67 19.4 79 79 SSE 8 13 29.99 1016 10 16 0.00 0.00
5:52 pm 17:52 Cloudy 73 22.8 67 19.4 81 81 SSW 6 9 30.00 1016 10 16 0.00 0.00
6:52 pm 18:52 Cloudy 73 22.8 67 19.4 81 81 Calm 29.99 1016 10 16 0.00 0.00
7:40 pm 19:40 Cloudy with Light Rain 72 22.2 67 19.4 84 84 SE 5 7 29.98 1015 9 14 0.00 0.00
7:52 pm 19:52 Cloudy with Light Rain 72 22.2 68 20 87 87 E 3 6 29.98 1015 9 14 0.00 0.00
8:07 pm 20:07 Cloudy with Drizzle 72 22.2 68 20 87 87 E 5 7 29.98 1015 8 13 0.00 0.00
8:34 pm 20:34 Cloudy with Drizzle 72 22.2 68 20 87 87 ESE 5 7 29.98 1015 7 11 0.00 0.00
8:46 pm 20:46 Cloudy with Light Rain 72 22 68 20 88 88 SE 6 9 29.99 1016 5 8 0.00 0.00
8:52 pm 20:52 Cloudy with Light Rain 71 21.7 68 20 90 90 SE 8 13 29.99 1016 6 10 0.00 0.00
9:13 pm 21:13 Cloudy 71 21.7 68 20 90 90 SE 5 7 29.98 1015 8 13 0.01 0.25
9:52 pm 21:52 Cloudy 71 21.7 68 20 90 90 SSE 9 15 29.98 1015 10 16 0.01 0.25
10:52 pm 22:52 Cloudy 71 21.7 68 20 90 90 ESE 6 9 29.97 1015 9 14 0.00 0.00
11:22 pm 23:22 Cloudy 71 21.7 68 20 90 90 SE 5 7 29.95 1014 10 16 0.00 0.00
11:26 pm 23:26 Cloudy 71 21.7 68 20 90 90 SE 6 9 29.95 1014 10 16 0.00 0.00
11:52 pm 23:52 Cloudy 71 21.7 68 20 90 90 SSE 9 15 29.95 1014 10 16 0.00 0.00

Powered by AerisWeather